C/2020 N1 ( PanSTARRS )

Japanese version
Home page
Updated on May 17, 2021

---------------------------------------------------------------------

* Profile

Discovery Date July 3, 2020
Magnitude 20.7 mag
Discoverer Pan-STARRS 1 telescope (Haleakala)

* Pictures

* Orbital Elements

Epoch 2021 Mar. 7.0 TT = JDT 2459280.5
T 2021 Mar. 12.22519 TT                                 Rudenko
q   1.3206987            (2000.0)            P               Q
z  -0.0004261      Peri.  186.77045     -0.27298035     -0.82905129
 +/-0.0000021      Node   279.98197     +0.90424388     -0.04797152
e   1.0005628      Incl.   29.70358     +0.32836678     -0.55711102
From 807 observations 2020 July 1-2021 Apr. 7, mean residual 0".8.

* Finding Charts

* Magnitudes Graph

        m1 = 14.0 + 5 log d + 7.0 log r(t + 40)

---------------------------------------------------------------------

The orbital elements are published on M.P.E.C. 2021-J28.
The charts are made with StellaNavigator Ver.10 (AstroArts).
The magnitudes graphs are made with Comet for Windows.

---------------------------------------------------------------------

Copyright(C) Seiichi Yoshida (comet@aerith.net). All rights reserved.